P/2009 Q1 ( Hill )

Japanese version
Home page
Updated on March 17, 2010

---------------------------------------------------------------------

* Profile

Discovery Date August 27, 2009
Magnitude 17.9 mag
Discoverer R. E. Hill (Catalina Sky Survey)

* Pictures

* Orbital Elements

Epoch 2009 June 18.0 TT = JDT 2455000.5
T 2009 July 4.07425 TT                                  MPC
q   2.7890468            (2000.0)            P               Q
n   0.07548482     Peri.  157.90354     +0.88412122     +0.46655256
a   5.5449331      Node   174.09056     -0.45727426     +0.87521648
e   0.4970098      Incl.   14.43139     -0.09607243     +0.12776865
P  13.06

* Magnitudes Graph

        m1 = 12.5 + 5 log d + 10.0 log r

---------------------------------------------------------------------

The orbital elements are published on M.P.E.C. 2009-S148.
The magnitudes graphs are made with Comet for Windows.

---------------------------------------------------------------------

Copyright(C) Seiichi Yoshida (comet@aerith.net). All rights reserved.